Regional Weather Roundup
Issued by NWS

Home | Current Version | Previous Version | Graphics & Text | Print | Product List | Glossary On
Versions: 1 2 3 4 5 6 7 8 9 10 11 12 13 14 15 16 17 18 19 20 21 22 23 24 25 26 27 28 29 30 31 32 33 34 35 36 37 38 39 40 41 42 43 44 45 46 47 48 49 50
000
ASUS43 KMPX 071601
RWRMN
WEATHER ROUNDUP FOR MINNESOTA
NATIONAL WEATHER SERVICE TWIN CITIES/CHANHASSEN MN
1000 AM CST WED DEC 07 2016


NOTE: "FAIR" INDICATES FEW OR NO CLOUDS BELOW 12,000 FEET WITH NO
SIGNIFICANT WEATHER AND/OR OBSTRUCTIONS TO VISIBILITY. N/A MEANS
CURRENT SKY AND/OR WEATHER CONDITIONS ARE NOT AVAILABLE.

MNZ060>063-068>070-071700-
   Twin Cities Metro

CITY           SKY/WX    TMP DP  RH WIND       PRES   REMARKS
TWIN CITIES    FLURRIES  18  10  71 W22G30    30.04R WCI   1
ST PAUL        LGT SNOW  19  12  74 W15G25    30.05R WCI   5
CRYSTAL        LGT SNOW  18   8  65 W22       30.02R WCI   1
BLAINE         FLURRIES  19  10  68 W17G25    30.01R WCI   4
LAKEVILLE      LGT SNOW  16  10  79 W15G30    30.05R WCI   1
EDEN PRAIRIE   LGT SNOW  18   8  65 W21G29    30.04R WCI   1
SOUTH ST PAUL  FLURRIES  19  10  68 W16G26    30.04R WCI   4
LAKE ELMO      LGT SNOW  19  14  79 W15G23    30.02R WCI   5
$$
MNZ001>005-007-008-013>017-022>024-027-028-071700-
   Northwest Minnesota

CITY           SKY/WX    TMP DP  RH WIND       PRES   REMARKS
BEMIDJI        LGT SNOW  14  10  83 W23G29    29.82R WCI  -4
HALLOCK        LGT SNOW  19  18  93 NW23G33   29.86R WCI   2
ROSEAU         CLOUDY    21  18  86 W13G20    29.77R FOG     WCI   9
WARROAD        CLOUDY    21  18  86 W10       29.75R WCI  10
THIEF RVR FALL LGT SNOW  15  11  83 W18G26    29.87R FOG     WCI  -2
CROOKSTON      CLOUDY    16  12  86 NW24G31   29.93R FOG     WCI  -3
FOSSTON        LGT SNOW  12   9  85 W17G23    29.88R WCI  -5
DETROIT LAKES  LGT SNOW  14  10  85 W18G26    29.94R WCI  -3
MOORHEAD       MIX PCPN  12   9  85 W22       30.02R VSB 1   WCI  -7
PARK RAPIDS    LGT SNOW  13   6  74 W22       29.87R WCI  -6
$$
MNZ006-009>011-018-025>026-071700-
   North Central Minnesota

CITY           SKY/WX    TMP DP  RH WIND       PRES   REMARKS
BAUDETTE       CLOUDY    22  19  89 W17G25    29.71R FOG     WCI   8
FLAG ISLAND    LGT SNOW  25  21  86 NW21      29.70R WCI  10
INTL FALLS     LGT SNOW  22  19  89 W10       29.66R VSB 1   WCI  11
WASKISH        CLOUDY    19  18  93 W21G28    29.76R WCI   3
BIG FORK       LGT SNOW  18  14  86 W10G17    29.73R WCI   6
LONGVILLE      LGT SNOW  16   9  73 W14G23    29.84R WCI   1
GRAND RAPIDS   LGT SNOW  17  11  77 W14G23    29.80R WCI   3
CRANE LAKE     CLOUDY    21  19  93 SW7       29.67R FOG     WCI  13
ORR            LGT SNOW  19  16  86 W10G17    29.65R WCI   8
COOK           LGT SNOW  18  16  93 W10       29.69R WCI   6
$$
MNZ012-019>021-037-071700-
   Northeast Minnesota

CITY           SKY/WX    TMP DP  RH WIND       PRES   REMARKS
DULUTH         LGT SNOW  16  11  80 W22G29    29.74R BLWGSNOWWCI  -2
ELY            LGT SNOW  18  16  93 W15       29.64R WCI   3
HIBBING        LGT SNOW  16  12  84 W9G20     29.73R VSB 1   WCI   4
EVELETH        LGT SNOW  18  14  84 W14       29.73R VSB 3/4 WCI   4
DULUTH HARBOR  FLURRIES  21  14  73 W24G31    29.81S WCI   4
TWO HARBORS    FLURRIES  21  12  68 W16       29.72R WCI   7
SILVER BAY     LGT SNOW  19  16  86 W7G20     29.68R WCI  10
GRAND MARAIS     N/A     28  23  81 W17G24    29.65R WCI  16
G MARAIS ARPRT LGT SNOW  18  12  79 W9        29.57R WCI   6
$$
MNZ029>031-032-039>041-046>048-054>057-064-071700-
   West Central Minnesota

CITY           SKY/WX    TMP DP  RH WIND       PRES   REMARKS
FERGUS FALLS   LGT SNOW  12   9  85 NW23G35   30.07R VSB 1   WCI  -7
WHEATON        FLURRIES  16  10  79 W18G31    30.10R WCI  -1
MORRIS         LGT SNOW  14   9  79 W28G37    30.05R WCI  -6
ALEXANDRIA     LGT SNOW  12   7  80 W23G35    30.00R VSB 1   WCI  -7
ELBOW LAKE     LGT SNOW  12   8  85 NW24      30.04R WCI  -8
WADENA         LGT SNOW  10   7  85 W20G30    29.92R WCI  -8
GLENWOOD       LGT SNOW  12   9  85 W21G30    30.01R VSB 1   WCI  -6
APPLETON       SUNNY     16   7  67 NW20G32   30.10R WCI  -1
BENSON         FLURRIES  16   7  67 NW23G31   30.07R WCI  -2
ORTONVILLE     SUNNY     16   5  62 W22G33    30.09R WCI  -2
MADISON        SUNNY     18   9  68 W21G31    30.14R WCI   1
WILLMAR        LGT SNOW  16   9  73 W28G35    30.08R WCI  -4
$$
MNZ033>034-036-042>043-049>051-058-059-071700-
   Central Minnesota

CITY           SKY/WX    TMP DP  RH WIND       PRES   REMARKS
ST CLOUD       FLURRIES  16   8  71 W20G29    29.99R WCI  -1
PAYNESVILLE    FLURRIES  14   8  76 W21G30    30.04R WCI  -4
AITKIN         MIX PCPN  18   9  68 W9G20     29.85R WCI   6
PINE RIVER     FLURRIES  14   9  79 W12G22    29.90R WCI   0
BRAINERD       LGT SNOW  14   7  73 W21G28    29.90R WCI  -4
STAPLES        CLOUDY    12   7  79 W18G26    29.92R WCI  -5
LONG PRAIRIE   LGT SNOW  12   7  79 SW16G28   29.98R WCI  -4
LITTLE FALLS   MOSUNNY   16   7  67 W13G29    29.96R WCI   2
LITCHFIELD     MIX PCPN  16  10  79 W21G29    30.05R WCI  -2
BUFFALO        FLURRIES  17   9  71 W15G26    30.04R WCI   2
MAPLE LAKE     FLURRIES  17  11  76 W10G18    30.03R WCI   5
HUTCHINSON     FLURRIES  17  12  80 W22G28    30.07R WCI   0
$$
MNZ037-044-045-052-053-071700-
   East Central Minnesota

CITY           SKY/WX    TMP DP  RH WIND       PRES   REMARKS
PRINCETON      FLURRIES  18   9  68 W16G25    29.98R WCI   3
MORA           MOSUNNY   18  10  73 W15G22    29.95R WCI   3
CAMBRIDGE      FLURRIES  19   9  63 W17G23    29.96R WCI   4
RUSH CITY      CLOUDY    18   9  68 W17G26    29.96R WCI   2
MOOSE LAKE     CLOUDY    18  10  73 W13G22    29.84R HAZE    WCI   4
HINCKLEY       CLOUDY    18  10  73 W15G28    29.91R WCI   3
CLOQUET        LGT SNOW  16   9  73 W16G30    29.78R WCI   0
MCGREGOR       CLOUDY    18  10  73 W15       29.84S WCI   3
$$
MNZ071>073-080-081-089-090-097-098-071700-
   Southwest Minnesota

CITY           SKY/WX    TMP DP  RH WIND       PRES   REMARKS
MONTEVIDEO     PTSUNNY   18   7  62 NW18G26   30.13R WCI   2
GRANITE FALLS  SUNNY     16   8  71 W24G30    30.15R WCI  -2
CANBY          SUNNY     15   7  69 NW22G29   30.15R WCI  -3
MARSHALL       PTSUNNY   14   6  70 W24G33    30.14R WCI  -5
REDWOOD FALLS  CLOUDY    15   4  61 W23G32    30.13R WCI  -3
OLIVIA         PTSUNNY   18   9  68 W21G31    30.09R WCI   1
PIPESTONE      MOSUNNY   12   7  79 NW21G31   30.14R WCI  -6
WINDOM         SUNNY     14   7  73 W25G36    30.12R WCI  -5
WORTHINGTON    SUNNY     11   5  77 W29G35    30.14R WCI -11
JACKSON        SUNNY     12   5  73 W24G33    30.13R WCI  -8
TRACY          SUNNY     15   8  73 W16G25    30.14R WCI  -1
SLAYTON        SUNNY     10   5  79 W22       30.13R WCI -10
$$
MNZ065>067-074>077-082>085-091>093-071700-
   South Central Minnesota

CITY           SKY/WX    TMP DP  RH WIND       PRES   REMARKS
MANKATO        MOSUNNY   14   6  70 W20G30    30.11R WCI  -3
NEW ULM        PTSUNNY   14   5  67 W23G29    30.12R WCI  -5
ST JAMES       SUNNY     16   7  67 W25G32    30.13S WCI  -3
FAIRMONT       SUNNY     14   7  73 W21G30    30.14R WCI  -4
GLENCOE        LGT SNOW  17  12  82 W20       30.07R WCI   0
FARIBAULT      CLOUDY    16   9  73 W17G25    30.07S WCI   0
OWATONNA       FLURRIES  16   9  73 W20G28    30.07R WCI  -1
WASECA         FLURRIES  18  10  73 W23       30.11R WCI   0
ALBERT LEA     LGT SNOW  18  12  79 W14G25    30.08S WCI   4
$$
MNZ078>079-086>088-094>096-071700-
   Southeast Minnesota

CITY           SKY/WX    TMP DP  RH WIND       PRES   REMARKS
ROCHESTER      FLURRIES  14   9  80 W21       30.04R WCI  -4
RED WING       FLURRIES  19   9  63 W23       30.04R WCI   2
STANTON        FLURRIES  17   9  71 W17G25    30.06R WCI   2
DODGE CENTER   LGT SNOW  14   9  79 W22G30    30.05R WCI  -4
WINONA         FLURRIES  19  12  73 W7        30.07S WCI  10
AUSTIN         FLURRIES  16   9  73 W16       30.07S WCI   0
PRESTON        LGT SNOW  13   8  79 W17G23    30.06R WCI  -4
$$
ABBREVIATIONS USED IN REMARKS
   TC - TEMPERATURES IN CELSIUS
  WCI - WIND CHILL INDEX
   HX - HEAT INDEX
  VSB - VISIBILITY
$$




USA.gov is the U.S. government's official web portal to all federal, state and local government web resources and services.